Zurück zum Katalog

STARLINK-31877

AktivKommunikationVLEO
NORAD 59675·PAYLOAD·🇺🇸 United States

Gestartet May 6, 2024 von Cape Canaveral Space Force Station

Loading…

Nächste Überflüge (nächste 24 Stunden)

TLE

AktuellSource: CelesTrak SupGP

Epoche: Sep 14, 2026, 22:51 UTC

1 59675C 24084X   26257.95256944  .00046120  00000+0  16708-2 0  2579
2 59675  43.0010  53.0550 0001483 276.1687 206.7920 15.27549345    15

Verfolge STARLINK-31877 in Echtzeit mit AllMySat

Download on the App Store